Location: Baumgarten
(49.0970°N, 12.7493°E)
Time: 19:20:17
(UTC+00:00)

Cosmos 1633 - Pass Details

Date: 05 July 2020
Orbit: 462 x 482 km, 82.5° (Epoch: 12 August)

Event Time Altitude Azimuth Distance (km) Brightness Sun altitude
Exits shadow 23:01:06 39° 129° (SE) 732 3.1 -18.2°
Maximum altitude 23:01:49 45° 94° (E) 663 3.1 -18.2°
Drops below altitude 10° 23:05:18 10° 21° (NNE) 1,665 6.3 -18.2°
Sets 23:07:27 0° 15° (NNE) 2,547 7.6 -18.2°
